sat.trackr.live / text

‹ back to catalog

STARLINK-33698

NORAD 63420 · 2025-065X

PAYLOAD ACTIVE UNKNOWN

§ Identity

Operator
Country
US
Launch date
2025-03-31
Launch site
AFETR
Launch vehicle
Mass (kg)
RCS (m²)

Purposes: comms

External: N2YO · Heavens-Above · Gunter

§ Orbital elements

Epoch: 2026-05-24T23:57:34.396992Z

Period
94.27 min
Inclination
43.0032°
Eccentricity
0.0001409
Mean motion
15.27601335 rev/d
Perigee alt
482.0 km
Apogee alt
484.0 km
Semi-major
6,861.1 km
B*
9.5699e-4
RAAN
35.7767°
Arg perigee
273.4002°
Mean anomaly
86.6688°
Rev number
6,451

§ Raw data

STARLINK-336981 63420U 25065X   26144.99831478  .00026183  00000+0  95699-3 0  99992 63420  43.0032  35.7767 0001409 273.4002  86.6688 15.27601335 64517

JSON: /api/v1/satellites/63420 · /tle

For live sub-satellite position, see the globe view (requires WebGL).

§ Visibility from observer

Set your observer location to see the next 7 days of passes ≥ 10°. The values pass through the URL so the page stays shareable.

No JS? Fill the form by hand. The geolocation button needs JavaScript.